Hauptseite
METAR-TAF:

METAR-TAF

Flughäfen :

Nancy, Frankreich

Breite: 48-41N, Länge: 006-13E, Höhe: 225 m

Beobachtung

Neuester Wetterbericht von vor 11 Minuten, um 13:30 UTC
Wind 4 kt aus West, variierte zwischen West/Südwest und Nordwest
Temperatur 23°C
Luftfeuchtigkeit 50%
Luftdruck 1012 hPa
Sichtweite 10 km oder mehr
Gewitter in der Nähe

METAR: LFSN 221330Z AUTO 28004KT 250V320 9999 VCTS ///CB 23/12 Q1012

Zeit: 15:41 (13:41 UTC)


TAF: fehlend

Wetterbeobachtungen und Prognosen von mehr als 4000 Flughäfen (METAR und TAF Bericht).

Die verfügbaren Stationen werden durch gelbe und rote Markierungen auf der Karte dargestellt.

Führen Sie die Maus auf sie, um den Namen der Station zu sehen.

Darauf klicken, um die Beobachtung von Wetterbeobachtungen und Prognosen zu sehen.

Um die Karte zu ändern : klicken Sie auf den grünen Tasten mit einem schwarzen Kreuz Zum Vergrößern, auf den grünen Button mit einem Gedankenstrich zu verkleinern, oder auf die grünen Pfeile für benachbarte Karten.


METAR-TAF: